sat.trackr.live / text

‹ back to catalog

CENTISPACE-1 S1

NORAD 43636 · 2018-075A

PAYLOAD ACTIVE UNKNOWN

§ Identity

Operator
Country
PRC
Launch date
2018-09-29
Launch site
JSC
Launch vehicle
Mass (kg)
RCS (m²)

External: N2YO · Heavens-Above · Gunter

§ Orbital elements

Epoch: 2026-09-20T03:55:12.440352Z

Period
98.63 min
Inclination
97.8706°
Eccentricity
0.0008654
Mean motion
14.60072321 rev/d
Perigee alt
686.8 km
Apogee alt
699.1 km
Semi-major
7,071.1 km
B*
6.6858e-5
RAAN
282.1712°
Arg perigee
172.8124°
Mean anomaly
187.3202°
Rev number
42,441

§ Raw data

CENTISPACE-1 S11 43636U 18075A   26263.16333843  .00000278  00000+0  66858-4 0  99962 43636  97.8706 282.1712 0008654 172.8124 187.3202 14.60072321424416

JSON: /api/v1/satellites/43636 · /tle

For live sub-satellite position, see the globe view (requires WebGL).

§ Visibility from observer

Set your observer location to see the next 7 days of passes ≥ 10°. The values pass through the URL so the page stays shareable.

No JS? Fill the form by hand. The geolocation button needs JavaScript.